FW9743 Weather Reports


time (UTC)temp
C
wind
direction
speed
KPH
gust
KPH
rain 1hr
cm
rain 24hr
cm
rain mn
cm
humidity
%
barometer
mb
20260906023103 -17 0.0 0.0 0.00 0.00 0.00 1022.7
20260906021606 19 0.0 0.0 0.00 0.00 0.00 63 1022.6
20260906020108 19 0 0.0 4.8 0.00 0.00 0.00 63 1022.5
20260906014604 18 249 1.6 6.4 0.00 0.00 0.00 65 1022.5
20260906013110 18 201 3.2 6.4 0.00 0.00 0.00 65 1022.2
20260906011608 20 0 0.0 0.0 0.00 0.00 0.00 64 1022.1
20260906004604 -17 0.0 0.0 0.00 0.00 0.00 1022.1
20260906003103 -17 0.0 0.0 0.00 0.00 0.00 1022.2
20260906001604 -17 0.0 0.0 0.00 0.00 0.00 1022.1
20260906000106 21 3.2 4.8 0.00 0.00 0.00 61 1021.9
20260905234558 21 328 3.2 6.4 0.00 0.00 0.00 62 1021.9
20260905233056 21 313 3.2 4.8 0.00 0.00 0.00 65 1022.0
20260905231555 21 298 1.6 6.4 0.00 0.00 0.00 59 1021.7
20260905230103 22 311 3.2 8.0 0.00 0.00 0.00 54 1021.7
20260905224556 22 8.0 12.9 0.00 0.00 0.00 52 1021.7
20260905223054 -17 0.0 0.0 0.00 0.00 0.00 1021.4
20260905221604 -17 0.0 0.0 0.00 0.00 0.00 1021.1
20260905214600 -17 0.0 0.0 0.00 0.00 0.00 1021.0
20260905213134 -17 0.0 0.0 0.00 0.00 0.00 1020.9
20260905211559 -17 0.0 0.0 0.00 0.00 0.00 1020.6
20260905204555 -17 0.0 0.0 0.00 0.00 0.00 1020.2
20260905203055 -17 0.0 0.0 0.00 0.00 0.00 1020.1
20260905201556 -17 0.0 0.0 0.00 0.00 0.00 1019.9
20260905200056 -17 0.0 0.0 0.00 0.00 0.00 1019.7
20260905194609 -17 0.0 0.0 0.00 0.00 0.00 1019.6
20260905193055 -17 0.0 0.0 0.00 0.00 0.00 1019.3
20260905191608 -17 0.0 0.0 0.00 0.00 0.00 1019.1
20260905190052 -17 0.0 0.0 0.00 0.00 0.00 1018.8
20260905184621 -17 0.0 0.0 0.00 0.00 0.00 1018.8
20260905183058 -17 0.0 0.0 0.00 0.00 0.00 1018.6
20260905181607 -17 0.0 0.0 0.00 0.00 0.00 1018.4
20260905180105 -17 0.0 0.0 0.00 0.00 0.00 1018.2
20260905174558 -17 0.0 0.0 0.00 0.00 0.00 1017.8
20260905173116 27 22.5 33.8 0.00 0.00 0.00 42 1017.5
20260905171621 27 348 22.5 37.0 0.00 0.00 0.00 41 1017.4
20260905170106 28 338 20.9 33.8 0.00 0.00 0.00 41 1017.2
20260905164559 29 346 20.9 32.2 0.00 0.00 0.00 38 1017.0
20260905163113 -17 0.0 0.0 0.00 0.00 0.00 1016.6
20260905161602 30 333 24.1 32.2 0.00 0.00 0.00 39 1016.6
20260905160107 30 355 22.5 37.0 0.00 0.00 0.00 41 1016.2
20260905154613 31 338 24.1 37.0 0.00 0.00 0.00 41 1016.1
20260905153109 30 331 22.5 40.2 0.00 0.00 0.00 43 1016.0
20260905151613 31 5 20.9 40.2 0.00 0.00 0.00 42 1015.7
20260905150058 31 328 29.0 43.5 0.00 0.00 0.00 42 1015.5
20260905144554 32 325 25.7 43.5 0.00 0.00 0.00 43 1015.4
20260905143104 32 323 25.7 40.2 0.00 0.00 0.00 43 1015.3
20260905141603 33 355 30.6 46.7 0.00 0.00 0.00 41 1015.2
20260905140059 33 298 25.7 41.8 0.00 0.00 0.00 39 1014.9
20260905134553 35 284 14.5 30.6 0.00 0.00 0.00 35 1014.9
20260905133104 35 318 12.9 29.0 0.00 0.00 0.00 37 1014.9
20260905131606 35 331 14.5 29.0 0.00 0.00 0.00 37 1014.6
20260905130057 35 302 17.7 25.7 0.00 0.00 0.00 37 1014.7
20260905124605 35 252 9.7 20.9 0.00 0.00 0.00 36 1014.7
20260905123104 35 350 8.0 20.9 0.00 0.00 0.00 35 1014.9
20260905121601 35 292 12.9 25.7 0.00 0.00 0.00 34 1015.1
20260905120105 35 296 9.7 22.5 0.00 0.00 0.00 33 1015.2
20260905114606 35 282 12.9 30.6 0.00 0.00 0.00 33 1015.2
20260905113101 34 315 6.4 17.7 0.00 0.00 0.00 34 1015.4
20260905111646 35 300 8.0 17.7 0.00 0.00 0.00 35 1015.5
20260905110100 35 277 8.0 16.1 0.00 0.00 0.00 35 1015.4
20260905104604 35 287 4.8 17.7 0.00 0.00 0.00 34 1015.6
20260905103102 34 163 6.4 17.7 0.00 0.00 0.00 33 1015.7
20260905101607 33 267 3.2 19.3 0.00 0.00 0.00 33 1015.6
20260905100106 33 263 8.0 22.5 0.00 0.00 0.00 33 1015.7
20260905094555 33 289 9.7 17.7 0.00 0.00 0.00 34 1015.8
20260905093101 33 327 6.4 17.7 0.00 0.00 0.00 1015.8
20260905091604 32 240 6.4 12.9 0.00 0.00 0.00 1015.8
20260905084603 31 307 8.0 16.1 0.00 0.00 0.00 39 1015.8
20260905083100 31 292 6.4 16.1 0.00 0.00 0.00 40 1015.8
20260905081601 31 290 6.4 12.9 0.00 0.00 0.00 1015.8
20260905080100 30 4.8 12.9 0.00 0.00 0.00 42 1015.8
20260905074552 29 241 3.2 8.0 0.00 0.00 0.00 44 1015.6
20260905073102 27 0 1.6 8.0 0.00 0.00 0.00 47 1015.6
20260905071557 26 218 3.2 9.7 0.00 0.00 0.00 51 1015.7
20260905070104 25 200 4.8 11.3 0.00 0.00 0.00 53 1015.6
20260905064606 24 228 3.2 9.7 0.00 0.00 0.00 56 1015.5
20260905063100 23 211 4.8 9.7 0.00 0.00 0.00 59 1015.5
20260905061601 22 179 4.8 11.3 0.00 0.00 0.00 61 1015.4
20260905060054 21 195 4.8 9.7 0.00 0.00 0.00 65 1015.5
20260905054603 20 196 3.2 8.0 0.00 0.00 0.00 68 1015.5
20260905053109 18 0 0.0 0.0 0.00 0.00 0.00 74 1015.4
20260905051557 18 0 0.0 0.0 0.00 0.00 0.00 73 1015.5
20260905050053 17 0 0.0 4.8 0.00 0.00 0.00 73 1015.5
20260905044552 16 316 1.6 4.8 0.00 0.00 0.00 75 1015.5
20260905043101 16 316 1.6 3.2 0.00 0.00 0.00 77 1015.5
20260905041600 15 316 1.6 4.8 0.00 0.00 0.00 78 1015.3
20260905040107 15 313 4.8 11.3 0.00 0.00 0.00 78 1015.2
20260905034611 15 304 0.0 3.2 0.00 0.00 0.00 78 1015.1
20260905033117 15 0 0.0 0.0 0.00 0.00 0.00 78 1015.2
20260905031613 16 0 0.0 0.0 0.00 0.00 0.00 77 1015.2
20260905030104 15 0 0.0 0.0 0.00 0.00 0.00 77 1015.3
20260905024555 15 0 0.0 0.0 0.00 0.00 0.00 76 1015.3